Zurück zum Katalog

SL-8 R/B

AktivLEO
NORAD 6207·ROCKET BODY·🇷🇺 Russia

Gestartet Sep 29, 1972 von Plesetsk Cosmodrome

Loading…

Nächste Überflüge (nächste 24 Stunden)

TLE

AktuellSource: Space-Track

Epoche: Sep 14, 2026, 07:28 UTC

1 06207U 72074B   26257.31149505 -.00000031  00000-0  50804-4 0  9991
2 06207  65.8223 206.6468 0032018 268.3909 244.1745 13.76026459708898

Verfolge SL-8 R/B in Echtzeit mit AllMySat

Download on the App Store